P/2006 G1 ( McNaught )

Japanese version
Home page
Updated on September 23, 2007

---------------------------------------------------------------------

* Profile

Discovery Date April 5, 2006
Magnitude 18.0 mag
Discoverer R. H. McNaught (Siding Spring)

* Orbital Elements

The following orbital elements are taken from MPC 57417:

Epoch 2006 Aug. 13.0 TT = JDT 2453960.5
T 2006 Aug. 18.4821 TT                                  MPC
q   2.632159             (2000.0)            P               Q
n   0.0932054      Peri.  313.9343      -0.2565924      +0.9257731
a   4.817726       Node   299.2519      -0.7703045      -0.3694049
e   0.453651       Incl.   18.5578      -0.5837733      +0.0805243
P  10.6
From 123 observations 2006 Apr. 5-July 28, mean residual 0".6.

* Magnitudes Graph

        m1 = 12.0 + 5 log d + 10.0 log r

---------------------------------------------------------------------

The orbital elements are published at the MPC Ephemerides and Orbital Elements.
The magnitudes graphs are made with Comet for Windows.

---------------------------------------------------------------------

Copyright(C) Seiichi Yoshida (comet@aerith.net). All rights reserved.